Home > Weather > Busan > Past weeks

Flag for South Korea Weather for the Past 2 Weeks in Busan, South Korea

Now
57 °F

Passing clouds.


Feels Like: 54 °F
Forecast: 30 / 54 °F
Wind: 14 mph from Northwest

Location: Pusan / Kimhae International Airport

Current Time: Feb 14, 2016 at 5:18:03 AM

Latest Report: Feb 14, 2016 at 4:00 AM


Visibility: N/A

Pressure: 29.62 "Hg

Humidity: 67%

Dew point: 46 °F

Location of BusanLocation

Historic Weather in Busan — Graph

°F

Busan Temperature Yesterday

Maximum temperature yesterday: 61 °F (at 4:00 PM)
Minimum temperature yesterday: 54 °F (at 4:00 AM)
Average temperature yesterday: 57 °F

High & Low Weather Summary for the Past Weeks

 TemperatureHumidityPressure
High61 °F (Feb 13, 4:00 PM)100% (Jan 31, 2:00 AM)30.39 "Hg (Jan 31, 2:00 AM)
Low27 °F (Feb 2, 4:00 AM)22% (Feb 10, 2:00 PM)29.53 "Hg (Feb 14, 1:00 AM)
Average40 °F60%30.18 "Hg
* Reported Jan 30 4:00 AM — Feb 14 4:00 AM, Busan, Weather by CustomWeather, © 2016

Note: Actual official high and low records may vary slightly from our data, if they occured in-between our weather recording intervals... More about our weather records

Advertising

Busan Weather History for the Previous 24 Hours

 ConditionsComfort  
Time TempWeatherWind HumidityBarometerVisibility
4:00 AM
Sun, Feb 14
57 °FPassing clouds.14 mph67%29.62 "HgN/A
3:00 AM55 °FPassing clouds.12 mph94%29.56 "HgN/A
2:00 AM57 °FPassing clouds.12 mph94%29.56 "HgN/A
1:00 AM59 °FPartly cloudy.16 mph88%29.53 "HgN/A
12:00 AM59 °FPartly cloudy.14 mph94%29.56 "Hg6 mi
11:00 PM
Sat, Feb 13
59 °FLight rain. Mostly cloudy.12 mph94%29.56 "Hg4 mi
10:00 PM57 °FLight rain. Fog.8 mph100%29.59 "Hg3 mi
9:00 PM59 °FLight rain. Fog.16 mph100%29.59 "Hg1 mi
8:00 PM59 °FLight rain. Fog.17 mph100%29.62 "Hg2 mi
7:00 PM61 °FLight rain. Fog.10 mph94%29.65 "Hg2 mi
6:00 PM59 °FLight rain. Fog.12 mph100%29.68 "Hg2 mi
5:00 PM59 °FLight rain. Fog.14 mph100%29.71 "Hg2 mi
4:00 PM61 °FRain. Fog.12 mph94%29.71 "Hg1 mi
3:00 PM59 °FLight rain. Fog.8 mph100%29.74 "Hg1 mi
2:00 PM59 °FLight rain. Fog.6 mph100%29.77 "Hg0 mi
1:00 PM59 °FLight rain. Fog.2 mph94%29.83 "Hg0 mi
12:00 PM59 °FLight rain. Fog.3 mph100%29.89 "Hg0 mi
11:00 AM57 °FLight rain. Fog.1 mph100%29.89 "Hg0 mi
10:00 AM55 °FLight rain. Fog.3 mph94%29.92 "Hg0 mi
9:00 AM55 °FLight rain. Fog.1 mph100%29.92 "Hg1 mi
8:00 AM54 °FLight rain. Fog.2 mph94%29.92 "Hg0 mi
7:00 AM54 °FLight rain. Fog.1 mph94%29.92 "Hg0 mi
6:00 AM54 °FLight rain. Fog.2 mph100%29.92 "Hg1 mi
5:00 AM54 °FLight rain. Fog.2 mph100%29.95 "Hg1 mi
Weather by CustomWeather, © 2016

See weather overviewHow to use our weather pages